Location: Hamilton Branch State Park
(33.7552°N, 82.2209°W)
Time: 08:40:57
(UTC-04:00)

Hubble Space Telescope - Pass Details

Date: 18 September 2019
Orbit: 536 x 540 km, 28.5° (Epoch: 16 October)

Event Time Altitude Azimuth Distance (km) Brightness Sun altitude
Exits shadow 05:41:24 38° 196° (SSW) 820 1.4 -19.8°
Maximum altitude 05:41:45 39° 183° (S) 808 1.5 -19.7°
Drops below altitude 10° 05:45:36 10° 113° (ESE) 1,780 4.1 -18.9°
Sets 05:47:57 0° 106° (ESE) 2,671 5.3 -18.5°
